Flag for Russia Weather past 2 weeks in Yakutsk, Russia

Now
55 °F

Passing clouds.


Feels Like: 55 °F
Forecast: 46 / 53 °F
Wind: 3 mph from Northwest

Location: Jakutsk

Current Time: Sep 1, 2015 at 9:27:10 PM

Latest Report: Sep 1, 2015 at 9:00 PM


Visibility: N/A

Pressure: 29.86 "Hg

Humidity: 55%

Dew point: 39 °F

Location of YakutskLocation

Historic Weather in Yakutsk — Graph

°F

Yakutsk temperature yesterday

Maximum temperature yesterday: 68 °F (at 3:00 PM)
Minimum temperature yesterday: 43 °F (at 11:00 PM)
Average temperature yesterday: 56 °F

Past Weeks' High & Low Weather Summary

 TemperatureHumidityPressure
High91 °F (Aug 24, 3:30 PM)94% (Aug 17, 8:00 PM)30.18 "Hg (Aug 17, 8:00 PM)
Low34 °F (Sep 1, 4:00 AM)21% (Aug 24, 4:30 PM)29.74 "Hg (Aug 19, 9:30 AM)
Average61 °F62%29.97 "Hg
* Reported Aug 17 8:00 PM — Sep 1 8:00 PM, Yakutsk, Weather by CustomWeather, © 2015

Note: Actual official high and low records may vary slightly from our data, if they occured in-between our weather recording intervals... More about our weather records

Advertising

Yakutsk weather history for previous 24 hours

 ConditionsComfort  
Time TempWeatherWind HumidityBarometerVisibility
8:00 PM
Tue, Sep 1
57 °FClear.3 mph51%29.86 "Hg10 mi
7:30 PM59 °FSunny.1 mph48%29.86 "Hg10 mi
7:00 PM59 °FSunny.1 mph48%29.86 "Hg10 mi
6:30 PM61 °FSunny.1 mph45%29.83 "Hg10 mi
6:00 PM61 °FSunny.3 mph42%29.83 "Hg10 mi
5:30 PM63 °FSunny.3 mph39%29.83 "Hg10 mi
5:00 PM63 °FSunny.1 mph39%29.83 "Hg10 mi
4:30 PM63 °FSunny.3 mph42%29.83 "Hg10 mi
4:00 PM63 °FSunny.3 mph42%29.83 "Hg10 mi
3:30 PM63 °FSunny.3 mph42%29.83 "Hg10 mi
3:00 PM63 °FSunny.3 mph37%29.83 "Hg10 mi
2:30 PM63 °FSunny.1 mph37%29.86 "Hg10 mi
2:00 PM63 °FSunny.1 mph37%29.86 "Hg10 mi
1:30 PM63 °FSunny.3 mph37%29.86 "Hg10 mi
12:30 PM63 °FPassing clouds.3 mph42%29.89 "HgN/A
12:00 PM63 °FPassing clouds.3 mph37%29.89 "HgN/A
11:30 AM61 °FSunny.1 mph45%29.92 "Hg10 mi
11:00 AM61 °FSunny.1 mph45%29.92 "Hg10 mi
10:30 AM59 °FSunny.1 mph51%29.92 "Hg10 mi
10:00 AM57 °FSunny.1 mph59%29.92 "Hg10 mi
9:30 AM55 °FSunny.1 mph67%29.95 "Hg10 mi
9:00 AM54 °FSunny.1 mph63%29.95 "Hg10 mi
8:30 AM50 °FSunny.1 mph67%29.95 "Hg10 mi
8:00 AM48 °FSunny.No wind71%29.95 "Hg10 mi
7:30 AM45 °FPassing clouds.No wind76%29.98 "HgN/A
7:00 AM39 °FPassing clouds.1 mph81%29.98 "HgN/A
6:30 AM37 °FPassing clouds.1 mph87%29.98 "HgN/A
6:00 AM36 °FPassing clouds.1 mph87%29.98 "HgN/A
5:30 AM34 °FPassing clouds.1 mph87%29.98 "HgN/A
5:00 AM34 °FPassing clouds.1 mph87%29.98 "HgN/A
4:30 AM34 °FClear.3 mph87%29.98 "Hg10 mi
4:00 AM34 °FClear.3 mph87%30.01 "Hg10 mi
3:30 AM36 °FClear.3 mph87%30.01 "Hg10 mi
3:00 AM36 °FClear.3 mph87%30.01 "Hg10 mi
2:30 AM36 °FClear.3 mph87%30.01 "Hg10 mi
2:00 AM37 °FClear.1 mph81%30.04 "Hg10 mi
1:30 AM37 °FClear.3 mph81%30.04 "Hg10 mi
1:00 AM37 °FClear.1 mph87%30.04 "Hg10 mi
12:30 AM39 °FClear.3 mph81%30.04 "Hg10 mi
12:00 AM41 °FClear.6 mph76%30.04 "Hg10 mi
11:30 PM
Mon, Aug 31
43 °FClear.6 mph71%30.04 "Hg10 mi
11:00 PM43 °FClear.3 mph76%30.07 "Hg10 mi
10:30 PM45 °FClear.6 mph71%30.07 "Hg10 mi
10:00 PM46 °FClear.6 mph66%30.07 "Hg10 mi
9:30 PM48 °FClear.3 mph66%30.07 "Hg10 mi
9:00 PM50 °FClear.3 mph58%30.07 "Hg10 mi
Weather by CustomWeather, © 2015

See weather overviewHow to use our weather pages